Weather History for Jefferson, NC

Change the Weather History Date:

Wednesday, December 5, 2012

  Actual Average Record
Temperature  
Mean Temperature 47 °F -  
Max Temperature 58 °F 49 °F 68 °F (2001)
Min Temperature 37 °F 25 °F 1 °F (1974)
Degree Days  
Heating Degree Days 18    
Moisture  
Dew Point 33 °F    
Average Humidity 56    
Maximum Humidity 90    
Minimum Humidity 23    
Precipitation  
Precipitation 0.00 in - - ()
Sea Level Pressure  
Sea Level Pressure 30.19 in    
Wind  
Wind Speed 6 mph (NW)    
Max Wind Speed 13 mph    
Max Gust Speed 21 mph    
Visibility 10 miles    
Events      
Averages and records for this station are not official NWS values.
T = Trace of Precipitation, MM = Missing Value Source: NWS Daily Summary

Daily Weather History Graph

Daily Weather History Graph

Search for Another Location

Airport:

Trip Planner

Search our weather history database for the weather conditions in past years. The results will help you decide how hot, cold, wet, or windy it might be!

Date:

Astronomy

Dec. 05, 2012 Rise Set
Actual Time 7:22 AM EST 5:10 PM EST
Civil Twilight 6:54 AM EST 5:38 PM EST
Nautical Twilight 6:22 AM EST 6:10 PM EST
Astronomical Twilight 5:51 AM EST 6:41 PM EST
Moon 11:49 PM EST (12/5) 11:53 AM EST (12/5)
Length of Visible Light 10h 44m
Length of Day
9h 47m
Waning Gibbous, 60% of the Moon is Illuminated
Dec 5
Waning Gibbous
Dec 6
Last Quarter
Dec 13
New
Dec 20
First Quarter
Dec 28
Full

Hourly Weather History & Observations

Time (EST) Temp. Windchill Dew Point Humidity Pressure Visibility Wind Dir Wind Speed Gust Speed Precip Events Conditions
12:15 AM 53.1 °F - 42.3 °F 67% 30.19 in 10.0 mi SW 3.5 mph - N/A   Clear
12:35 AM 53.6 °F - 42.1 °F 65% 30.18 in 10.0 mi Calm Calm - N/A   Clear
12:55 AM 55.6 °F - 41.9 °F 60% 30.18 in 10.0 mi WSW 4.6 mph - N/A   Clear
1:15 AM 57.2 °F - 41.5 °F 56% 30.18 in 10.0 mi WSW 3.5 mph - N/A   Clear
1:35 AM 57.2 °F - 41.9 °F 57% 30.17 in 10.0 mi West 5.8 mph - N/A   Clear
1:55 AM 57.4 °F - 41.7 °F 56% 30.17 in 10.0 mi West 6.9 mph - N/A   Scattered Clouds
2:15 AM 55.8 °F - 41.9 °F 60% 30.17 in 10.0 mi WSW 3.5 mph - N/A   Scattered Clouds
2:55 AM 57.6 °F - 42.1 °F 56% 30.16 in 10.0 mi West 9.2 mph - N/A   Mostly Cloudy
3:15 AM 57.4 °F - 42.3 °F 57% 30.16 in 10.0 mi West 11.5 mph - N/A   Mostly Cloudy
3:35 AM 57.2 °F - 42.3 °F 57% 30.16 in 10.0 mi West 11.5 mph 17.3 mph N/A   Overcast
3:55 AM 56.5 °F - 42.8 °F 60% 30.16 in 10.0 mi West 12.7 mph 18.4 mph N/A   Overcast
4:15 AM 56.3 °F - 43.9 °F 63% 30.15 in 10.0 mi West 10.4 mph 19.6 mph N/A   Overcast
4:35 AM 55.9 °F - 45.0 °F 67% 30.15 in 10.0 mi West 9.2 mph 18.4 mph N/A   Overcast
4:55 AM 55.4 °F - 45.9 °F 70% 30.14 in 10.0 mi West 11.5 mph 16.1 mph N/A   Overcast
5:15 AM 54.9 °F - 46.6 °F 74% 30.15 in 10.0 mi West 6.9 mph 20.7 mph N/A   Overcast
5:35 AM 54.0 °F - 48.2 °F 81% 30.15 in 5.0 mi West 12.7 mph 17.3 mph N/A   Drizzle
5:55 AM 54.5 °F - 48.4 °F 80% 30.15 in 10.0 mi West 9.2 mph 16.1 mph N/A   Overcast
6:15 AM 54.5 °F - 48.4 °F 80% 30.15 in 10.0 mi WNW 12.7 mph 17.3 mph N/A   Overcast
6:35 AM 54.3 °F - 48.6 °F 81% 30.16 in 7.0 mi West 11.5 mph - N/A   Overcast
6:55 AM 53.6 °F - 48.6 °F 83% 30.17 in 7.0 mi WNW 9.2 mph 16.1 mph N/A   Overcast
7:15 AM 53.2 °F - 49.1 °F 86% 30.18 in 7.0 mi WNW 5.8 mph - N/A   Overcast
7:35 AM 52.9 °F - 49.1 °F 87% 30.18 in 10.0 mi West 9.2 mph - N/A   Overcast
7:55 AM 51.8 °F - 49.1 °F 90% 30.19 in 5.0 mi NNW 6.9 mph - N/A   Drizzle
9:35 AM 47.5 °F - 43.3 °F 86% 30.24 in 10.0 mi North 6.9 mph - N/A   Overcast
9:55 AM 47.3 °F - 43.3 °F 86% 30.24 in 10.0 mi Calm Calm - N/A   Overcast
10:15 AM 47.7 °F - 42.4 °F 82% 30.24 in 10.0 mi Calm Calm - N/A   Overcast
10:35 AM 48.0 °F - 41.2 °F 77% 30.24 in 10.0 mi Calm Calm - N/A   Overcast
10:55 AM 49.3 °F - 43.0 °F 79% 30.24 in 10.0 mi NNW 4.6 mph - N/A   Overcast
11:15 AM 50.0 °F - 40.3 °F 69% 30.22 in 10.0 mi NW 3.5 mph - N/A   Overcast
11:35 AM 50.2 °F - 40.3 °F 69% 30.22 in 10.0 mi Calm Calm - N/A   Overcast
11:55 AM 50.7 °F - 39.4 °F 65% 30.21 in 10.0 mi North 4.6 mph - N/A   Scattered Clouds
12:15 PM 51.8 °F - 38.1 °F 60% 30.20 in 10.0 mi NNW 8.1 mph - N/A   Clear
12:35 PM 52.9 °F - 37.8 °F 56% 30.20 in 10.0 mi NW 4.6 mph - N/A   Clear
12:55 PM 53.6 °F - 35.4 °F 50% 30.19 in 10.0 mi NW 6.9 mph - N/A   Clear
1:15 PM 54.3 °F - 36.0 °F 50% 30.19 in 10.0 mi NW 6.9 mph - N/A   Clear
1:35 PM 55.4 °F - 32.7 °F 42% 30.18 in 10.0 mi NW 5.8 mph - N/A   Clear
1:55 PM 55.2 °F - 19.9 °F 25% 30.18 in 10.0 mi North 9.2 mph - N/A   Clear
2:15 PM 53.6 °F - 19.2 °F 26% 30.18 in 10.0 mi NNE 9.2 mph 17.3 mph N/A   Clear
2:35 PM 53.2 °F - 19.8 °F 27% 30.18 in 10.0 mi North 9.2 mph - N/A   Clear
2:55 PM 52.9 °F - 21.7 °F 30% 30.18 in 10.0 mi NNE 10.4 mph - N/A   Clear
3:15 PM 53.2 °F - 19.4 °F 27% 30.18 in 10.0 mi North 6.9 mph - N/A   Clear
3:35 PM 52.9 °F - 18.5 °F 26% 30.19 in 10.0 mi NNW 6.9 mph - N/A   Clear
3:55 PM 52.3 °F - 16.9 °F 25% 30.19 in 10.0 mi NW 4.6 mph - N/A   Clear
4:15 PM 51.4 °F - 16.2 °F 25% 30.19 in 10.0 mi North 4.6 mph - N/A   Clear
4:35 PM 50.4 °F - 14.9 °F 24% 30.20 in 10.0 mi North 6.9 mph - N/A   Clear
4:55 PM 49.5 °F - 12.9 °F 23% 30.20 in 10.0 mi NNW 5.8 mph - N/A   Clear
5:15 PM 48.2 °F - 13.1 °F 24% 30.21 in 10.0 mi NNW 3.5 mph - N/A   Clear
5:35 PM 47.3 °F - 14.2 °F 27% 30.21 in 10.0 mi NW 5.8 mph - N/A   Clear
5:55 PM 46.4 °F 45.2 °F 19.8 °F 35% 30.22 in 10.0 mi NW 3.5 mph - N/A   Clear
6:15 PM 45.9 °F 43.6 °F 23.0 °F 41% 30.22 in 10.0 mi NNW 4.6 mph - N/A   Clear
6:35 PM 45.5 °F 42.5 °F 23.5 °F 42% 30.22 in 10.0 mi NW 5.8 mph - N/A   Clear
7:15 PM 44.6 °F 40.7 °F 24.3 °F 45% 30.22 in 10.0 mi WNW 6.9 mph - N/A   Clear
7:35 PM 43.9 °F 41.3 °F 25.9 °F 49% 30.22 in 10.0 mi WNW 4.6 mph - N/A   Clear
8:15 PM 43.3 °F 39.9 °F 23.7 °F 46% 30.22 in 10.0 mi NW 5.8 mph - N/A   Clear
8:35 PM 42.1 °F 39.2 °F 22.1 °F 45% 30.21 in 10.0 mi WNW 4.6 mph - N/A   Clear
8:55 PM 43.0 °F 41.3 °F 19.0 °F 38% 30.22 in 10.0 mi WNW 3.5 mph - N/A   Clear
9:15 PM 41.7 °F 39.8 °F 22.8 °F 47% 30.22 in 10.0 mi NNW 3.5 mph - N/A   Clear
9:35 PM 41.0 °F - 23.0 °F 49% 30.21 in 10.0 mi Calm Calm - N/A   Clear
9:55 PM 39.0 °F - 26.1 °F 60% 30.22 in 10.0 mi Calm Calm - N/A   Clear
10:15 PM 38.8 °F - 26.6 °F 61% 30.21 in 10.0 mi Calm Calm - N/A   Clear
10:35 PM 37.8 °F - 26.4 °F 64% 30.21 in 10.0 mi Calm Calm - N/A   Clear
10:55 PM 37.6 °F - 26.4 °F 64% 30.21 in 10.0 mi Calm Calm - N/A   Clear
11:15 PM 37.8 °F - 26.4 °F 64% 30.21 in 10.0 mi Calm Calm - N/A   Clear
11:35 PM 37.8 °F - 25.7 °F 62% 30.21 in 10.0 mi Calm Calm - N/A   Clear
11:55 PM 38.1 °F 34.6 °F 25.5 °F 61% 30.20 in 10.0 mi North 4.6 mph - N/A   Clear